Wind_Speed
10 8 7 7 7 7 6 5 6 6 6 6 6 7 9 11 12 9 5 2 2 6 5 2 4 5 3 2 2 3 4 1 3 5 2 5 7 5 5 5 2 2 5 4 11
12 10 9 8 7 7 7 6 5 5 5 5 5 7 9 12 12 7 2 3 6 2 5 6 3 4 3 2 2 4 4 8 3 1 2 5 2 3 6 4 3 3 6 18 15
14 13 11 10 9 8 7 6 6 5 4 4 5 7 10 11 3 3 4 0 6 4 4 3 2 2 3 2 2 3 5 5 4 4 1 1 7 4 4 4 6 10 7 8 14
17 15 13 12 10 8 7 6 6 5 5 5 7 9 11 5 2 3 6 1 10 2 2 3 4 3 3 2 2 3 5 6 3 6 5 3 2 8 5 4 1 7 4 7 9
16 15 14 13 11 9 8 7 6 6 6 6 8 10 5 4 6 4 4 5 7 4 4 3 2 3 2 2 2 4 4 7 7 7 9 7 4 7 14 20 10 4 3 6 3
16 15 13 13 12 10 9 7 6 6 5 6 7 8 3 2 2 4 1 3 3 6 4 4 4 5 1 2 3 5 3 4 6 5 6 5 7 9 9 15 2 7 13 4 9
17 15 13 13 12 11 10 8 7 6 5 5 6 5 1 7 2 5 4 4 4 6 4 6 4 2 3 2 3 2 3 3 1 3 5 4 1 8 14 9 11 8 12 7 3
19 15 14 13 12 12 12 11 10 7 5 5 5 2 6 2 8 11 7 8 10 10 8 2 5 2 2 3 6 4 5 3 5 2 4 6 8 11 14 7 3 11 6 6 8
23 17 14 13 13 14 16 17 9 6 4 5 1 1 8 6 4 4 6 4 2 1 6 2 4 2 4 4 5 6 1 1 6 3 2 0 8 8 9 14 11 7 6 6 8
29 20 14 13 14 16 19 12 5 3 2 1 1 2 4 3 8 3 1 3 2 3 3 5 5 3 4 5 2 3 2 2 2 3 4 3 10 9 8 7 11 14 8 10 11
34 25 17 12 13 15 16 3 5 3 1 5 5 3 6 7 5 2 3 3 3 8 2 3 4 5 6 4 3 1 1 3 4 7 3 3 8 12 17 8 7 12 11 13 13
38 29 22 13 11 12 6 5 4 3 6 5 5 5 9 4 3 4 3 2 2 1 1 5 4 6 2 4 5 4 3 5 6 2 3 7 9 12 22 12 11 11 13 15 14
40 32 28 13 10 4 4 1 2 3 1 7 4 4 4 8 4 3 4 2 2 1 2 5 5 2 5 4 4 3 5 4 5 4 3 2 5 16 12 19 17 16 14 17 15
41 36 30 13 1 4 1 6 13 8 4 5 3 5 3 2 3 3 4 3 2 2 4 3 4 3 5 4 4 2 3 2 3 3 2 3 4 13 10 16 18 15 15 15 16
42 39 30 9 5 1 2 13 4 3 3 2 2 1 1 5 2 5 3 2 1 3 4 3 7 5 6 3 1 2 3 4 3 4 3 10 6 7 7 13 14 14 17 17 16
44 40 25 4 5 4 8 5 2 5 3 3 2 1 2 2 2 2 6 7 2 4 5 2 4 3 1 2 4 2 5 7 5 3 4 5 5 9 5 5 10 14 17 16 15
44 37 16 5 2 3 7 4 4 3 4 4 2 2 2 1 4 4 4 7 3 4 6 7 5 6 3 3 6 7 6 3 3 4 3 2 7 2 6 11 10 11 11 11 11
43 29 13 7 6 2 2 5 2 3 4 3 3 3 3 4 3 3 3 4 5 4 3 3 6 6 8 2 1 4 4 5 3 3 3 6 3 1 5 7 7 8 7 10 11
41 18 5 8 11 2 5 3 6 5 3 4 2 4 5 3 5 5 3 2 1 2 5 2 3 5 4 3 2 1 4 3 6 3 4 4 3 3 4 7 7 8 8 7 7
27 12 8 5 12 4 4 4 4 4 3 2 3 1 2 5 4 4 1 1 1 4 1 3 2 2 5 4 5 4 3 3 4 3 2 1 4 4 4 3 6 8 7 7 7
8 4 9 3 1 5 3 6 5 6 4 2 2 3 2 3 3 2 1 1 3 3 6 3 3 6 3 5 2 4 3 6 5 4 5 4 5 5 7 4 3 5 6 6 6
7 3 10 4 4 1 2 4 4 4 4 3 4 3 3 2 3 2 3 1 4 1 3 2 4 1 1 3 3 3 3 3 5 2 1 3 4 5 7 4 2 5 6 5 5
2 3 5 4 2 3 5 5 4 3 4 2 3 4 5 3 4 3 3 3 4 4 4 4 3 3 7 6 5 5 4 4 4 3 3 4 3 3 4 1 2 5 6 5 7
2 4 4 4 1 2 4 4 2 4 4 5 4 4 4 4 6 3 2 5 3 4 7 6 3 5 6 4 2 3 4 3 4 3 2 4 5 4 3 3 5 5 5 7 8
4 0 3 4 3 3 2 3 2 2 3 7 4 4 4 3 3 2 2 2 5 4 4 4 3 2 3 3 1 2 2 3 2 2 3 0 3 5 4 3 5 5 5 8 8
2 3 4 2 3 5 0 2 2 3 2 2 6 1 3 5 5 7 4 2 2 4 3 3 2 1 2 2 5 2 3 6 5 3 5 4 1 3 2 2 4 5 6 9 9
3 2 3 3 3 2 2 5 1 1 5 4 7 4 5 4 3 3 3 4 4 6 3 3 5 3 3 3 2 3 2 2 2 1 4 3 3 4 3 3 4 2 5 7 8
Wind_Direction
21 17 8 2 357 355 349 341 332 334 335 337 333 326 325 324 320 306 254 204 52 227 325 9 66 50 96 77 49 121 66 199 229 169 134 302 36 344 53 119 298 303 331 285 133
28 25 17 11 7 4 1 356 350 348 346 340 332 328 335 329 324 278 337 226 213 54 63 40 23 23 49 96 32 95 122 214 227 203 32 321 112 131 96 339 274 243 272 264 170
30 28 21 15 12 11 7 4 2 0 357 349 343 341 337 334 300 262 11 323 179 155 72 34 24 63 78 20 156 159 175 200 262 133 76 237 308 25 104 169 199 206 218 185 184
31 30 28 26 25 25 22 20 23 22 24 9 350 344 339 350 79 1 348 10 184 179 89 47 41 64 99 175 205 141 214 166 246 163 157 205 143 329 310 262 290 221 196 177 186
26 26 25 26 25 26 26 25 26 24 12 356 350 347 357 6 256 356 18 97 156 170 142 134 125 130 158 195 125 180 243 175 237 245 248 139 91 194 203 283 291 291 266 218 284
17 17 18 18 18 13 8 3 2 358 352 349 345 350 13 340 340 9 305 144 170 168 151 153 199 189 147 236 188 211 217 225 248 243 255 204 185 162 218 193 90 286 283 173 209
9 7 6 7 6 3 353 339 330 327 326 326 333 351 30 230 356 315 284 260 235 190 155 206 196 102 148 292 280 299 312 328 231 24 257 164 109 174 257 165 115 305 280 342 78
4 360 357 355 355 352 341 327 308 287 291 306 323 348 251 252 305 289 271 269 267 242 219 247 204 114 152 284 9 32 44 36 316 359 309 119 255 233 183 145 153 222 119 42 26
5 355 348 344 344 342 338 329 299 252 266 289 321 48 282 307 321 336 243 255 298 202 206 217 120 98 34 74 15 9 231 54 338 258 32 294 257 264 261 202 139 150 113 90 69
7 356 343 337 335 336 342 357 58 137 167 37 264 352 297 304 318 278 229 238 79 99 61 59 50 72 39 66 230 244 20 332 249 298 101 240 266 338 326 125 169 135 114 87 63
5 359 345 333 328 332 347 340 10 359 138 214 232 249 276 305 294 253 187 116 59 56 65 7 50 226 229 201 157 114 245 258 240 264 193 286 21 8 2 43 109 97 78 74 56
3 359 349 331 321 326 8 88 142 261 313 245 253 261 266 269 310 294 170 105 63 171 96 19 257 241 252 172 165 163 196 257 281 285 128 95 33 18 25 15 68 59 62 66 57
359 356 351 332 317 317 342 125 226 313 135 300 210 211 233 152 218 270 134 128 150 122 197 166 247 296 194 169 158 211 188 212 197 354 70 134 71 28 16 39 52 52 61 63 61
356 352 348 336 331 348 35 345 322 161 56 283 277 279 151 130 306 195 163 124 41 350 126 208 299 50 79 60 131 95 199 137 56 81 204 348 162 43 23 44 51 51 52 55 51
353 349 343 318 304 252 350 340 115 99 24 255 249 289 123 137 250 3 32 35 53 357 77 295 5 33 54 340 30 106 57 40 58 92 74 346 72 335 38 43 39 40 51 48 48
349 346 337 291 232 235 331 348 99 45 261 324 226 136 105 23 6 65 31 39 44 73 22 336 294 43 273 102 42 76 71 43 48 72 44 314 105 20 30 47 67 57 53 52 51
347 343 330 202 205 63 352 52 47 138 318 310 266 156 138 262 39 48 46 27 42 44 3 342 351 327 36 47 13 61 53 349 345 18 205 263 62 7 45 53 57 67 62 51 43
344 340 320 247 214 282 61 55 181 242 250 296 10 103 148 147 51 37 75 38 14 66 67 54 336 2 334 53 158 63 125 146 235 181 203 26 88 158 73 72 60 55 50 51 44
343 346 7 353 202 158 76 92 209 215 277 315 76 75 23 20 115 86 63 118 343 29 120 84 282 325 16 341 66 164 56 165 106 15 77 136 93 141 89 49 34 29 31 32 28
339 338 5 3 132 99 80 234 235 217 315 46 109 87 87 357 80 80 76 315 186 44 129 191 358 344 300 15 31 94 135 46 13 138 152 85 176 201 152 31 9 12 5 358 6
353 27 7 159 45 54 160 234 276 254 238 135 155 100 103 105 79 79 134 359 349 49 67 93 102 291 24 23 299 345 28 50 107 111 158 160 253 177 152 149 28 349 344 340 352
355 24 356 139 51 24 179 209 267 264 58 70 93 98 99 67 85 106 138 46 344 64 63 31 125 288 143 305 287 74 103 99 112 216 101 153 262 115 130 139 57 338 313 325 330
7 275 348 10 109 321 302 287 231 308 35 76 84 57 50 82 94 71 91 356 23 74 134 173 23 26 355 354 4 41 3 102 94 72 198 131 250 165 128 175 284 304 319 321 327
21 355 328 34 55 85 351 285 258 37 64 60 77 77 78 65 29 115 92 13 27 78 76 88 94 147 188 211 192 340 349 19 104 98 201 228 150 192 202 279 295 303 340 344 326
29 326 165 322 339 355 290 284 297 35 61 34 53 59 131 112 70 99 110 110 35 6 53 92 112 177 208 259 45 87 295 325 106 78 150 238 120 195 226 305 309 321 330 320 318
52 27 352 271 299 318 29 258 183 159 52 19 111 90 99 148 175 186 142 166 183 26 65 17 163 177 230 43 21 81 81 87 72 105 92 123 153 194 225 256 299 323 333 322 322
25 77 108 281 335 5 308 298 1 53 43 78 136 100 77 166 135 95 89 125 146 143 118 87 130 94 255 27 30 350 264 84 117 207 148 183 181 184 229 291 291 299 316 296 311
Height
787 786 785 784 783 781 780 779 778 778 777 776 775 774 773 771 770 769 767 765 764 765 765 765 766 765 766 768 769 774 808 816 799 799 790 774 774 767 768 778 774 769 763 757 762
788 787 786 784 783 781 780 778 778 777 777 776 775 774 773 770 768 766 763 763 764 765 766 766 767 766 774 773 776 788 811 804 785 781 783 780 770 774 777 785 781 778 776 767 769
789 788 786 784 782 781 780 779 778 777 776 776 775 774 773 770 769 762 761 762 763 765 767 767 767 768 775 774 777 787 800 789 779 781 778 783 776 764 777 787 778 778 772 769 770
791 789 787 785 783 781 780 779 778 778 777 777 775 774 772 770 783 761 761 761 763 765 766 767 768 775 783 783 776 786 780 782 775 774 778 780 771 776 771 771 768 765 766 768 769
793 791 789 787 785 783 781 780 779 778 778 777 776 774 773 774 769 762 762 762 763 765 766 768 771 775 782 781 779 783 777 778 772 772 770 772 780 781 777 760 760 765 763 769 769
795 793 791 789 786 784 783 781 780 779 778 778 777 776 775 778 763 762 763 763 764 765 766 768 770 771 777 779 781 776 775 774 772 773 773 773 772 781 771 764 774 767 769 767 766
796 794 792 790 788 785 783 781 780 779 778 778 777 777 777 770 762 762 763 763 763 764 766 766 767 771 773 779 772 773 779 774 770 772 774 770 778 775 760 761 765 773 769 761 772
796 793 791 789 787 785 783 780 779 778 778 778 777 777 775 761 761 760 761 761 762 763 765 766 767 770 774 772 779 784 789 799 780 776 772 772 800 767 753 763 768 767 772 777 777
796 792 790 788 786 784 781 778 775 776 777 777 777 777 773 761 759 759 759 760 760 761 764 766 767 775 777 791 804 803 807 799 791 776 775 779 786 768 758 758 769 775 778 780 779
796 791 788 786 784 782 779 776 774 776 776 777 778 781 763 765 759 758 758 759 760 761 765 769 780 789 797 802 823 809 803 799 801 782 785 793 789 783 769 764 766 771 781 784 786
796 791 787 784 782 780 779 777 780 780 777 774 773 771 765 761 759 758 758 759 761 767 783 780 793 800 791 791 790 792 798 802 793 784 781 786 798 794 780 776 781 780 787 789 796
795 790 786 782 781 779 779 780 782 784 786 767 768 768 762 762 766 759 759 765 768 782 778 792 799 783 779 786 789 795 800 804 791 779 781 794 810 797 793 794 795 798 799 799 803
795 789 784 781 779 779 779 780 779 779 789 772 764 764 759 761 765 762 758 764 772 781 783 794 783 774 780 786 789 793 800 795 793 785 785 792 809 812 809 807 806 808 810 808 812
793 787 783 779 780 778 778 778 776 776 806 784 768 760 758 757 766 756 756 763 770 779 784 786 776 777 780 784 787 793 780 781 784 798 812 796 829 826 829 825 821 823 821 821 821
792 785 781 778 778 778 778 776 774 776 827 774 766 754 756 765 763 763 758 760 776 778 781 786 781 782 787 784 777 787 779 789 790 807 810 815 833 841 831 837 838 835 831 832 833
789 783 777 776 776 776 776 774 776 811 821 779 763 766 768 765 766 763 767 764 768 779 782 785 774 776 779 780 781 781 791 807 816 825 843 828 837 848 848 843 846 842 841 841 841
785 779 774 774 775 775 774 775 814 823 779 782 775 769 773 777 778 777 788 795 801 803 810 796 789 780 776 785 785 793 813 838 834 845 846 828 841 865 855 851 852 850 848 847 846
781 775 772 773 773 775 774 797 815 793 787 770 772 773 781 778 785 787 793 806 797 802 819 819 818 795 784 788 794 804 814 840 831 850 844 831 851 865 856 855 854 853 853 850 849
778 772 770 772 772 774 786 816 807 792 776 777 776 786 791 781 785 793 802 806 802 800 815 821 811 792 787 785 790 800 820 814 840 846 847 853 861 856 857 858 857 857 855 855 853
779 774 774 773 773 775 797 808 792 778 770 773 788 786 796 795 794 799 802 800 799 800 798 811 821 801 795 789 793 796 807 825 840 844 847 846 852 853 856 861 859 859 859 857 854
782 781 776 775 775 786 807 803 786 771 769 776 783 788 792 793 796 804 806 800 796 800 801 808 819 815 804 815 816 816 819 833 840 849 855 860 851 848 857 860 863 863 860 858 856
792 791 776 776 792 807 803 792 778 770 768 771 777 781 788 792 799 803 805 802 796 797 810 815 830 833 818 811 812 812 821 833 854 837 860 858 854 851 858 860 860 862 861 859 857
806 801 778 776 801 804 796 786 777 773 776 776 781 782 789 799 806 803 804 802 798 803 809 814 839 849 841 825 817 824 822 834 845 854 848 859 851 857 858 859 859 860 859 859 856
807 807 794 789 799 798 799 791 781 775 782 783 787 785 793 803 808 807 806 806 802 807 808 816 842 842 854 835 834 829 828 826 836 870 844 847 858 860 857 859 859 858 858 858 857
813 818 817 815 804 806 803 794 785 786 782 786 791 795 796 807 809 811 807 807 808 809 814 821 836 831 832 828 826 831 831 829 830 840 846 849 853 856 855 856 857 858 859 859 856
820 823 819 816 811 806 799 788 788 790 787 790 796 798 798 805 807 813 809 810 809 813 818 828 840 830 831 829 833 837 836 838 840 848 851 852 853 852 853 856 857 860 860 858 855
820 820 822 815 809 806 803 793 787 788 790 789 795 800 803 805 802 803 806 810 808 815 825 831 843 854 839 840 838 853 838 840 846 846 846 848 847 852 854 857 859 861 862 860 855